Asheville, NC

5:47 AM EDT on May 25, 2018 (GMT -0400)
Asheville Regional

Weather History for KAVL - April, 2013

Change the Weather History Date:

Wednesday, April 3, 2013

  Actual Average Record
Temperature  
Mean Temperature 49 °F 52 °F  
Max Temperature 59 °F 64 °F 88 °F (1963)
Min Temperature 38 °F 40 °F 23 °F (1936)
Degree Days  
Heating Degree Days 16 13  
Month to date heating degree days 46 41  
Since 1 July heating degree days 3697 3813  
Cooling Degree Days 0 0  
Month to date cooling degree days 0 0  
Year to date cooling degree days 0 1  
Moisture  
Dew Point 17 °F    
Average Humidity 34    
Maximum Humidity 49    
Minimum Humidity 19    
Precipitation  
Precipitation 0.00 in 0.11 in 1.83 in (2000)
Month to date precipitation T 0.35  
Year to date precipitation 15.46 11.61  
Snow  
Snow 0.00 in 0.10 in 11.50 in (1987)
Month to date snowfall 0.0 0.2  
Since 1 July snowfall 0.5 9.4  
Snow Depth 0.00 in    
Sea Level Pressure  
Sea Level Pressure 30.19 in    
Wind  
Wind Speed 7 mph (NNW)    
Max Wind Speed 14 mph    
Max Gust Speed 17 mph    
Visibility 10 miles    
Events      
T = Trace of Precipitation, MM = Missing Value Source: NWS Daily Summary

Daily Weather History Graph

Daily Weather History Graph

Search for Another Location

Airport or City:

Astronomy

Apr. 03, 2013 Rise Set
Actual Time 7:13 AM EDT 7:53 PM EDT
Civil Twilight 6:47 AM EDT 8:19 PM EDT
Nautical Twilight 6:17 AM EDT 8:49 PM EDT
Astronomical Twilight 5:46 AM EDT 9:20 PM EDT
Moon 2:40 AM EDT (4/3) 1:17 PM EDT (4/3)
Length of Visible Light 13h 31m
Length of Day
12h 39m
Last Quarter, 45% of the Moon is Illuminated
Apr 3
Last Quarter
Apr 10
New
Apr 18
First Quarter
Apr 25
Full
May 2
Last Quarter

Hourly Weather History & Observations

Time (EDT) Temp. Windchill Dew Point Humidity Pressure Visibility Wind Dir Wind Speed Gust Speed Precip Events Conditions
12:54 AM 45.0 °F 39.3 °F 18.0 °F 34% 30.14 in 10.0 mi NNW 11.5 mph - N/A   Mostly Cloudy
1:54 AM 44.1 °F 39.0 °F 18.0 °F 35% 30.15 in 10.0 mi North 9.2 mph - N/A   Mostly Cloudy
2:54 AM 44.1 °F 37.7 °F 16.0 °F 32% 30.13 in 10.0 mi NNW 12.7 mph - N/A   Mostly Cloudy
3:54 AM 43.0 °F 40.3 °F 16.0 °F 34% 30.14 in 10.0 mi North 4.6 mph - N/A   Overcast
4:54 AM 42.1 °F 36.1 °F 14.0 °F 32% 30.14 in 10.0 mi North 10.4 mph - N/A   Overcast
5:54 AM 39.9 °F 32.5 °F 14.0 °F 35% 30.15 in 10.0 mi NNW 12.7 mph - N/A   Mostly Cloudy
6:54 AM 39.0 °F 33.4 °F 14.0 °F 36% 30.18 in 10.0 mi NNW 8.1 mph - N/A   Overcast
7:54 AM 39.0 °F 34.8 °F 14.0 °F 36% 30.23 in 10.0 mi North 5.8 mph - N/A   Mostly Cloudy
8:54 AM 42.1 °F 37.7 °F 14.0 °F 32% 30.24 in 10.0 mi North 6.9 mph - N/A   Scattered Clouds
9:54 AM 45.0 °F 39.7 °F 16.0 °F 31% 30.22 in 10.0 mi NNW 10.4 mph - N/A   Clear
10:54 AM 46.9 °F - 15.1 °F 28% 30.22 in 10.0 mi NNW 5.8 mph - N/A   Clear
11:54 AM 50.0 °F - 17.1 °F 27% 30.22 in 10.0 mi Variable 3.5 mph - N/A   Clear
12:54 PM 52.0 °F - 19.0 °F 27% 30.21 in 10.0 mi Calm Calm - N/A   Clear
1:54 PM 55.0 °F - 19.0 °F 24% 30.17 in 10.0 mi Variable 5.8 mph - N/A   Clear
2:54 PM 57.0 °F - 18.0 °F 22% 30.16 in 10.0 mi Calm Calm - N/A   Clear
3:54 PM 57.9 °F - 18.0 °F 21% 30.16 in 10.0 mi Variable 5.8 mph - N/A   Clear
4:54 PM 57.9 °F - 18.0 °F 21% 30.16 in 10.0 mi North 5.8 mph - N/A   Clear
5:54 PM 57.0 °F - 16.0 °F 20% 30.16 in 10.0 mi NNW 13.8 mph - N/A   Clear
6:54 PM 54.0 °F - 15.1 °F 22% 30.16 in 10.0 mi NNW 12.7 mph - N/A   Clear
7:54 PM 51.1 °F - 18.0 °F 27% 30.19 in 10.0 mi NNW 9.2 mph - N/A   Clear
8:54 PM 50.0 °F - 19.0 °F 29% 30.21 in 10.0 mi NNW 6.9 mph - N/A   Clear
9:54 PM 48.9 °F - 19.9 °F 32% 30.22 in 10.0 mi Calm Calm - N/A   Clear
10:54 PM 45.0 °F - 27.0 °F 49% 30.24 in 10.0 mi Calm Calm - N/A   Clear
11:54 PM 46.0 °F 43.9 °F 27.0 °F 47% 30.24 in 10.0 mi South 4.6 mph - N/A   Clear